• In Netherlands
  • List of Countries
  • For 7 days
  • Water Temperature
  • Satellite Maps
  • Weather Map
  • Weather Widgets
  • user-avatar
    Login

    Hourly Weather Jalalabad

    Today, 19 January, Thursday

    Time Temperature Precipitation Wind Pressure Humidity
    00:00 +5°C° 0.1 mm 1 mps 715 mmHg 74%
    01:00 +5°C° 0.1 mm 1 mps 715 mmHg 74%
    02:00 +5°C° 0.1 mm 1 mps 716 mmHg 74%
    03:00 +4°C° 0 mm 1 mps 715 mmHg 75%
    04:00 +3°C° 0 mm 1 mps 715 mmHg 76%
    05:00 +3°C° 0 mm 1 mps 715 mmHg 75%
    06:00 +3°C° 0 mm 1 mps 715 mmHg 73%
    07:00 +3°C° 0 mm 1 mps 716 mmHg 70%
    08:00 +2°C° 0 mm 0 mps 716 mmHg 68%
    09:00 +6°C° 0 mm 1 mps 717 mmHg 61%
    10:00 +8°C° 0 mm 1 mps 717 mmHg 53%
    11:00 +10°C° 0 mm 1 mps 717 mmHg 45%
    12:00 +11°C° 0 mm 1 mps 717 mmHg 44%
    13:00 +12°C° 0 mm 1 mps 716 mmHg 42%
    14:00 +12°C° 0 mm 1 mps 716 mmHg 40%
    15:00 +12°C° 0 mm 1 mps 716 mmHg 43%
    16:00 +11°C° 0 mm 1 mps 716 mmHg 45%
    17:00 +10°C° 0 mm 1 mps 716 mmHg 47%
    18:00 +9°C° 0 mm 1 mps 716 mmHg 49%
    19:00 +8°C° 0 mm 1 mps 717 mmHg 50%
    20:00 +7°C° 0 mm 1 mps 717 mmHg 52%
    21:00 +6°C° 0 mm 1 mps 717 mmHg 51%
    22:00 +6°C° 0 mm 1 mps 717 mmHg 50%
    23:00 +5°C° 0 mm 2 mps 717 mmHg 50%

    Tomorrow, 20 January, Friday

    Time Temperature Precipitation Wind Pressure Humidity
    00:00 +5°C° 0 mm 2 mps 717 mmHg 49%
    01:00 +4°C° 0 mm 2 mps 717 mmHg 48%
    02:00 +4°C° 0 mm 2 mps 717 mmHg 47%
    03:00 +4°C° 0 mm 2 mps 716 mmHg 46%
    04:00 +4°C° 0 mm 2 mps 716 mmHg 45%
    05:00 +3°C° 0 mm 2 mps 716 mmHg 43%
    06:00 +4°C° 0 mm 2 mps 716 mmHg 42%
    07:00 +4°C° 0 mm 2 mps 716 mmHg 40%
    08:00 +4°C° 0 mm 2 mps 716 mmHg 38%
    09:00 +7°C° 0 mm 2 mps 716 mmHg 34%
    10:00 +9°C° 0 mm 2 mps 716 mmHg 29%
    11:00 +13°C° 0 mm 2 mps 716 mmHg 25%
    12:00 +14°C° 0 mm 2 mps 715 mmHg 25%
    13:00 +14°C° 0 mm 2 mps 715 mmHg 25%
    14:00 +15°C° 0 mm 1 mps 714 mmHg 24%
    15:00 +14°C° 0 mm 1 mps 714 mmHg 27%
    16:00 +13°C° 0 mm 1 mps 714 mmHg 29%
    17:00 +12°C° 0 mm 1 mps 714 mmHg 32%
    18:00 +11°C° 0 mm 1 mps 714 mmHg 32%
    19:00 +10°C° 0 mm 1 mps 714 mmHg 32%
    20:00 +8°C° 0 mm 2 mps 715 mmHg 32%
    21:00 +8°C° 0 mm 2 mps 715 mmHg 32%
    22:00 +7°C° 0 mm 2 mps 715 mmHg 31%
    23:00 +7°C° 0 mm 2 mps 715 mmHg 30%

    Day after tomorrow, 21 January, Saturday

    Time Temperature Precipitation Wind Pressure Humidity
    00:00 +7°C° 0 mm 2 mps 715 mmHg 30%
    01:00 +7°C° 0 mm 2 mps 714 mmHg 29%
    02:00 +8°C° 0 mm 2 mps 714 mmHg 29%
    03:00 +8°C° 0 mm 2 mps 714 mmHg 29%
    04:00 +8°C° 0 mm 2 mps 714 mmHg 29%
    05:00 +8°C° 0 mm 2 mps 714 mmHg 30%
    06:00 +8°C° 0 mm 2 mps 714 mmHg 31%
    07:00 +9°C° 0 mm 2 mps 714 mmHg 32%
    08:00 +9°C° 0 mm 2 mps 714 mmHg 33%
    09:00 +12°C° 0 mm 2 mps 714 mmHg 30%
    10:00 +13°C° 0 mm 2 mps 714 mmHg 27%
    11:00 +15°C° 0 mm 2 mps 715 mmHg 25%
    12:00 +16°C° 0 mm 2 mps 714 mmHg 24%
    13:00 +16°C° 0 mm 2 mps 713 mmHg 24%
    14:00 +17°C° 0 mm 2 mps 713 mmHg 24%
    15:00 +16°C° 0 mm 2 mps 713 mmHg 26%
    16:00 +15°C° 0 mm 1 mps 713 mmHg 28%
    17:00 +14°C° 0 mm 1 mps 713 mmHg 30%
    18:00 +13°C° 0 mm 1 mps 714 mmHg 31%
    19:00 +12°C° 0 mm 2 mps 714 mmHg 32%
    20:00 +10°C° 0 mm 2 mps 715 mmHg 34%
    21:00 +10°C° 0 mm 2 mps 715 mmHg 35%
    22:00 +10°C° 0 mm 2 mps 715 mmHg 36%
    23:00 +10°C° 0 mm 2 mps 716 mmHg 37%

    22 January, Sunday

    Time Temperature Precipitation Wind Pressure Humidity
    00:00 +10°C° 0 mm 2 mps 716 mmHg 38%
    01:00 +9°C° 0 mm 2 mps 716 mmHg 39%
    02:00 +9°C° 0 mm 2 mps 716 mmHg 40%
    03:00 +9°C° 0 mm 2 mps 715 mmHg 42%
    04:00 +9°C° 0 mm 2 mps 715 mmHg 43%
    05:00 +9°C° 0 mm 2 mps 715 mmHg 45%
    06:00 +9°C° 0 mm 2 mps 715 mmHg 46%
    07:00 +9°C° 0 mm 2 mps 716 mmHg 46%
    08:00 +9°C° 0 mm 2 mps 716 mmHg 47%
    09:00 +10°C° 0 mm 2 mps 716 mmHg 43%
    10:00 +13°C° 0 mm 2 mps 716 mmHg 39%
    11:00 +14°C° 0 mm 2 mps 716 mmHg 35%
    12:00 +15°C° 0 mm 2 mps 716 mmHg 34%
    13:00 +15°C° 0 mm 2 mps 715 mmHg 34%
    14:00 +16°C° 0 mm 2 mps 714 mmHg 34%
    15:00 +15°C° 0 mm 2 mps 714 mmHg 36%
    16:00 +15°C° 0 mm 2 mps 714 mmHg 38%
    17:00 +14°C° 0 mm 2 mps 714 mmHg 40%
    18:00 +13°C° 0.1 mm 2 mps 715 mmHg 42%
    19:00 +13°C° 0.1 mm 2 mps 715 mmHg 44%
    20:00 +12°C° 0.1 mm 2 mps 716 mmHg 46%
    21:00 +12°C° 0.1 mm 2 mps 716 mmHg 47%
    22:00 +12°C° 0.1 mm 2 mps 716 mmHg 48%
    23:00 +10°C° 0.1 mm 2 mps 716 mmHg 49%

    23 January, Monday

    Time Temperature Precipitation Wind Pressure Humidity
    00:00 +10°C° 0.1 mm 2 mps 716 mmHg 51%
    01:00 +10°C° 0.1 mm 2 mps 715 mmHg 52%
    02:00 +10°C° 0.1 mm 2 mps 715 mmHg 53%
    03:00 +9°C° 0.1 mm 2 mps 715 mmHg 55%
    04:00 +9°C° 0.1 mm 2 mps 715 mmHg 57%
    05:00 +9°C° 0.1 mm 2 mps 715 mmHg 58%
    06:00 +9°C° 0.1 mm 2 mps 715 mmHg 58%
    07:00 +9°C° 0.1 mm 2 mps 715 mmHg 58%
    08:00 +9°C° 0.1 mm 2 mps 715 mmHg 58%
    09:00 +10°C° 0.1 mm 2 mps 715 mmHg 55%
    10:00 +13°C° 0.1 mm 2 mps 715 mmHg 52%
    11:00 +14°C° 0.1 mm 2 mps 715 mmHg 50%
    12:00 +14°C° 0.2 mm 2 mps 715 mmHg 50%
    13:00 +14°C° 0.2 mm 1 mps 714 mmHg 51%
    14:00 +14°C° 0.2 mm 1 mps 713 mmHg 51%
    15:00 +14°C° 0.7 mm 1 mps 713 mmHg 55%
    16:00 +13°C° 0.7 mm 2 mps 713 mmHg 60%
    17:00 +13°C° 0.7 mm 2 mps 713 mmHg 64%
    18:00 +12°C° 0.6 mm 2 mps 714 mmHg 66%
    19:00 +12°C° 0.6 mm 2 mps 714 mmHg 68%
    20:00 +10°C° 0.6 mm 2 mps 714 mmHg 71%
    21:00 +10°C° 0.7 mm 2 mps 714 mmHg 72%
    22:00 +10°C° 0.7 mm 2 mps 714 mmHg 73%
    23:00 +10°C° 0.7 mm 2 mps 714 mmHg 74%

    24 January, Tuesday

    Time Temperature Precipitation Wind Pressure Humidity
    00:00 +10°C° 0.5 mm 2 mps 714 mmHg 75%
    01:00 +9°C° 0.5 mm 2 mps 714 mmHg 75%
    02:00 +9°C° 0.5 mm 2 mps 713 mmHg 76%
    03:00 +9°C° 0.3 mm 2 mps 713 mmHg 76%
    04:00 +9°C° 0.3 mm 2 mps 713 mmHg 76%
    05:00 +9°C° 0.3 mm 2 mps 712 mmHg 76%
    06:00 +10°C° 0.4 mm 1 mps 713 mmHg 77%
    07:00 +10°C° 0.4 mm 1 mps 713 mmHg 77%
    08:00 +10°C° 0.4 mm 1 mps 713 mmHg 77%
    09:00 +10°C° 0.4 mm 1 mps 713 mmHg 75%
    10:00 +11°C° 0.4 mm 1 mps 713 mmHg 73%
    11:00 +12°C° 0.4 mm 1 mps 713 mmHg 71%
    12:00 +12°C° 0.3 mm 1 mps 712 mmHg 71%
    13:00 +12°C° 0.3 mm 1 mps 712 mmHg 70%
    14:00 +13°C° 0.3 mm 1 mps 711 mmHg 70%
    15:00 +12°C° 0.4 mm 1 mps 711 mmHg 73%
    16:00 +12°C° 0.4 mm 1 mps 711 mmHg 75%
    17:00 +12°C° 0.4 mm 1 mps 711 mmHg 78%
    18:00 +11°C° 0.6 mm 1 mps 711 mmHg 81%
    19:00 +11°C° 0.6 mm 1 mps 711 mmHg 83%
    20:00 +10°C° 0.6 mm 1 mps 712 mmHg 86%
    21:00 +10°C° 0.7 mm 1 mps 712 mmHg 86%
    22:00 +10°C° 0.7 mm 1 mps 712 mmHg 86%
    23:00 +10°C° 0.7 mm 1 mps 712 mmHg 86%
    Show more